Location: *
(43.9900°N, 3.4811°E)
Time: 16:19:32
(UTC+00:00)

ADEOS Rocket - Pass Details

Date: 25 August 2019
Orbit: 859 x 1306 km, 98.7° (Epoch: 17 October)

Event Time Altitude Azimuth Distance (km) Brightness Sun altitude
Rises 20:30:55 0° 10° (N) 3,632 6.4 -19.4°
Reaches altitude 10° 20:33:17 10° 7° (N) 2,734 5.7 -19.8°
Maximum altitude 20:39:21 63° 289° (WNW) 1,168 3.6 -20.6°
Drops below altitude 10° 20:46:04 10° 210° (SSW) 3,021 5.4 -21.5°
Sets 20:48:48 0° 207° (SSW) 4,040 6.1 -21.9°
